Hobart, OK

4:01 PM CST on February 24, 2017 (GMT -0600)
Hobart Municipal

Weather History for KHBR - December, 2013

Change the Weather History Date:

Wednesday, December 11, 2013

  Actual Average Record
Temperature  
Mean Temperature 27 °F -  
Max Temperature 36 °F 50 °F 66 °F (1996)
Min Temperature 18 °F 28 °F 15 °F (2000)
Degree Days  
Heating Degree Days 38    
Moisture  
Dew Point 20 °F    
Average Humidity 75    
Maximum Humidity 92    
Minimum Humidity 59    
Precipitation  
Precipitation 0.00 in - - ()
Sea Level Pressure  
Sea Level Pressure 30.50 in    
Wind  
Wind Speed 14 mph (NE)    
Max Wind Speed 26 mph    
Max Gust Speed 32 mph    
Visibility 10 miles    
Events      
Averages and records for this station are not official NWS values.
T = Trace of Precipitation, MM = Missing Value Source: NWS Daily Summary

Daily Weather History Graph

Daily Weather History Graph

Search for Another Location

Airport or City:

Trip Planner

Search our weather history database for the weather conditions in past years. The results will help you decide how hot, cold, wet, or windy it might be!

Date:

Astronomy

Dec. 11, 2013 Rise Set
Actual Time 7:34 AM CST 5:25 PM CST
Civil Twilight 7:06 AM CST 5:53 PM CST
Nautical Twilight 6:34 AM CST 6:24 PM CST
Astronomical Twilight 6:03 AM CST 6:55 PM CST
Moon 1:50 PM CST (12/11) 2:07 AM CST (12/11)
Length of Visible Light 10h 46m
Length of Day
9h 50m
Waxing Gibbous, 72% of the Moon is Illuminated
Dec 11
Waxing Gibbous
Dec 17
Full
Dec 25
Last Quarter
Jan 1
New
Jan 7
First Quarter

Hourly Weather History & Observations

Time (CST) Temp. Windchill Dew Point Humidity Pressure Visibility Wind Dir Wind Speed Gust Speed Precip Events Conditions
12:53 AM 28.0 °F 16.1 °F 21.9 °F 78% 30.23 in 10.0 mi South 16.1 mph - N/A   Clear
1:53 AM 27.0 °F 15.6 °F 21.0 °F 78% 30.25 in 10.0 mi SSW 13.8 mph - N/A   Clear
2:53 AM 25.0 °F 15.5 °F 19.9 °F 81% 30.27 in 9.0 mi SSW 9.2 mph - N/A   Clear
3:53 AM 19.9 °F 7.9 °F 17.1 °F 89% 30.32 in 9.0 mi NNW 11.5 mph - N/A   Clear
4:53 AM 19.9 °F 10.1 °F 18.0 °F 92% 30.34 in 8.0 mi NNE 8.1 mph - N/A   Clear
5:53 AM 18.0 °F 7.7 °F 16.0 °F 92% 30.37 in 8.0 mi NE 8.1 mph - N/A   Clear
6:53 AM 18.0 °F 7.7 °F 16.0 °F 92% 30.40 in 7.0 mi NNE 8.1 mph - N/A   Clear
7:53 AM 28.0 °F 13.9 °F 19.0 °F 69% 30.43 in 10.0 mi NNE 23.0 mph - N/A   Clear
8:53 AM 28.0 °F 13.3 °F 19.0 °F 69% 30.48 in 10.0 mi NNE 25.3 mph 32.2 mph N/A   Clear
9:53 AM 28.9 °F 14.3 °F 21.0 °F 72% 30.53 in 10.0 mi NE 26.5 mph 31.1 mph N/A   Clear
10:53 AM 30.9 °F 17.5 °F 21.9 °F 69% 30.56 in 10.0 mi NE 24.2 mph 31.1 mph N/A   Clear
11:53 AM 32.0 °F 19.5 °F 23.0 °F 69% 30.56 in 10.0 mi NE 21.9 mph - N/A   Clear
12:53 PM 34.0 °F 21.8 °F 25.0 °F 70% 30.55 in 10.0 mi NE 23.0 mph - N/A   Clear
1:53 PM 35.1 °F 24.1 °F 25.0 °F 67% 30.55 in 10.0 mi NNE 19.6 mph - N/A   Clear
2:53 PM 36.0 °F 25.6 °F 23.0 °F 59% 30.56 in 10.0 mi NE 18.4 mph - N/A   Clear
3:53 PM 35.1 °F 25.9 °F 24.1 °F 64% 30.58 in 10.0 mi NE 13.8 mph - N/A   Clear
4:53 PM 33.1 °F 24.9 °F 23.0 °F 66% 30.59 in 10.0 mi NE 10.4 mph 24.2 mph N/A   Clear
5:53 PM 27.0 °F 17.3 °F 19.9 °F 75% 30.61 in 10.0 mi NNE 10.4 mph - N/A   Clear
6:53 PM 26.1 °F 18.4 °F 19.9 °F 78% 30.63 in 10.0 mi NNE 6.9 mph - N/A   Clear
7:53 PM 26.1 °F 18.4 °F 18.0 °F 71% 30.64 in 10.0 mi NNE 6.9 mph - N/A   Clear
8:53 PM 24.1 °F 16.0 °F 17.1 °F 75% 30.66 in 10.0 mi NNE 6.9 mph - N/A   Clear
9:53 PM 21.9 °F 14.5 °F 16.0 °F 78% 30.66 in 10.0 mi NNE 5.8 mph - N/A   Clear
10:53 PM 23.0 °F 15.8 °F 15.1 °F 72% 30.65 in 10.0 mi NE 5.8 mph - N/A   Clear
11:53 PM 23.0 °F 15.8 °F 15.1 °F 72% 30.64 in 10.0 mi NE 5.8 mph - N/A   Clear